User: anonymous
Location: Coffee Creek Observatory
(38.8077°N, 94.7179°W)
Time: 06:49:08
(UTC-05:00)
Language:

Lacrosse 4 Rocket - Orbit

View from above orbital plane
View from above orbital plane
View from above satellite
View from above satellite

Ground track
Ground track

The orbit data is extracted from the following two-line orbital elements,

1 26474U 00047B   14272.48283489  .00002547  00000-0  24575-3 0  7538
2 26474 067.9970 057.0082 0063105 328.2732 031.4612 14.93128681767175
Epoch (UTC): 29 September 2014 11:35:16
Eccentricity: 0.0063105
inclination: 67.9970°
perigee height: 544 km
apogee height: 632 km
right ascension of ascending node: 57.0082°
argument of perigee: 328.2732°
revolutions per day: 14.93128681
mean anomaly at epoch: 31.4612°
orbit number at epoch: 76717

The dashed part of the orbit path shows where the satellite is in the earth's shadow,  

DLR